D1965 Weather Reports


time (UTC)temp
C
wind
direction
speed
KPH
gust
KPH
rain 1hr
cm
rain 24hr
cm
rain mn
cm
humidity
%
barometer
mb
20260506062505 5 18 1.6 6.4 0.00 0.00 0.00 85 1014.8
20260506061504 4 358 0.0 4.8 0.00 0.00 0.00 87 1014.7
20260506061005 4 359 0.0 4.8 0.00 0.00 0.00 87 1014.7
20260506060505 4 13 0.0 1.6 0.00 0.00 0.00 87 1014.7
20260506051005 3 0 0.0 0.0 0.00 0.00 0.00 88 1014.4
20260506044504 3 0 0.0 0.0 0.00 0.00 0.00 86 1014.4
20260506044005 4 0 0.0 0.0 0.00 0.00 0.00 86 1014.4
20260506043505 4 0 0.0 0.0 0.00 0.00 0.00 85 1014.4
20260506043005 4 0 0.0 0.0 0.00 0.00 0.00 85 1014.3
20260506042504 4 6 0.0 3.2 0.00 0.00 0.00 85 1014.4
20260506042005 4 6 0.0 3.2 0.00 0.00 0.00 85 1014.5
20260506041504 4 6 0.0 3.2 0.00 0.00 0.00 85 1014.4
20260506041005 5 9 0.0 6.4 0.00 0.00 0.00 85 1014.6
20260506040005 5 20 0.0 3.2 0.00 0.00 0.00 84 1014.5
20260506035504 5 21 0.0 1.6 0.00 0.00 0.00 84 1014.6
20260506034504 5 21 0.0 3.2 0.00 0.00 0.00 84 1014.7
20260506033006 5 26 1.6 4.8 0.00 0.00 0.00 84 1014.8
20260506032504 5 29 1.6 4.8 0.00 0.00 0.00 84 1014.8
20260506032005 5 29 0.0 3.2 0.00 0.00 0.00 83 1014.9
20260506031504 5 29 0.0 4.8 0.00 0.00 0.00 83 1014.9
20260506030504 5 26 0.0 1.6 0.00 0.00 0.00 83 1014.9
20260506024504 6 20 1.6 6.4 0.00 0.00 0.00 82 1015.1
20260506024005 6 18 1.6 6.4 0.00 0.00 0.00 82 1015.1
20260506023504 6 12 0.0 4.8 0.00 0.00 0.00 82 1015.0
20260506023005 6 9 1.6 8.0 0.00 0.00 0.00 82 1015.0
20260506022504 6 10 1.6 8.0 0.00 0.00 0.00 82 1015.0
20260506022005 6 26 1.6 6.4 0.00 0.00 0.00 82 1015.1
20260506021504 6 35 3.2 8.0 0.00 0.00 0.00 81 1015.0
20260506021005 6 33 4.8 12.9 0.00 0.00 0.00 81 1015.0
20260506020504 6 31 3.2 12.9 0.00 0.00 0.00 81 1015.0
20260506020005 6 24 3.2 9.7 0.00 0.00 0.00 82 1015.1
20260506015504 6 28 4.8 9.7 0.00 0.00 0.00 82 1015.1
20260506014504 6 36 6.4 14.5 0.00 0.00 0.00 82 1015.2
20260506014005 6 30 4.8 9.7 0.00 0.00 0.00 82 1015.2
20260506013504 6 29 4.8 9.7 0.00 0.00 0.00 82 1015.1
20260506012504 6 34 3.2 12.9 0.00 0.00 0.00 85 1015.2
20260506012006 7 32 3.2 9.7 0.00 0.00 0.00 86 1015.3
20260506011503 7 25 3.2 8.0 0.00 0.00 0.00 86 1015.3
20260506011006 7 25 3.2 8.0 0.00 0.00 0.00 86 1015.3
20260506010503 7 27 3.2 9.7 0.00 0.00 0.00 86 1015.3
20260506010005 7 29 3.2 11.3 0.00 0.00 0.00 86 1015.1
20260506005504 7 26 3.2 11.3 0.00 0.00 0.00 86 1015.2
20260506005005 7 20 1.6 8.0 0.00 0.00 0.00 87 1015.3
20260506004504 7 17 0.0 6.4 0.00 0.00 0.00 88 1015.2
20260506004004 7 6 0.0 3.2 0.00 0.00 0.00 88 1015.2
20260506003504 7 6 0.0 3.2 0.00 0.00 0.00 88 1015.2
20260506003005 7 6 0.0 3.2 0.00 0.00 0.00 88 1015.2
20260506001504 7 0 0.0 0.0 0.00 0.00 0.00 88 1015.1
20260506000504 7 0 0.0 0.0 0.00 0.00 0.00 88 1015.1
20260506000005 7 0 0.0 0.0 0.00 0.00 0.00 89 1015.2
20260505235504 7 0 0.0 0.0 0.00 0.00 0.00 88 1015.1
20260505234504 7 0 0.0 0.0 0.00 0.00 0.00 88 1015.3
20260505234004 7 0 0.0 0.0 0.00 0.00 0.00 88 1015.2
20260505233504 7 0 0.0 0.0 0.00 0.00 0.00 88 1015.3
20260505233005 7 0 0.0 0.0 0.00 0.00 0.00 89 1015.3
20260505232503 8 0 0.0 0.0 0.00 0.00 0.00 88 1015.2
20260505232005 8 0 0.0 0.0 0.00 0.00 0.00 88 1015.4
20260505231504 8 0 0.0 0.0 0.00 0.00 0.00 88 1015.4
20260505231005 8 0 0.0 0.0 0.00 0.00 0.00 87 1015.5
20260505225504 8 0 0.0 0.0 0.00 0.00 0.00 88 1015.7
20260505225004 8 0 0.0 0.0 0.00 0.00 0.00 88 1015.6
20260505224504 8 0 0.0 0.0 0.00 0.00 0.00 88 1015.7
20260505224006 8 0 0.0 0.0 0.00 0.00 0.00 88 1015.7
20260505223504 8 0 0.0 0.0 0.00 0.00 0.00 88 1015.7
20260505223004 8 0 0.0 0.0 0.00 0.00 0.00 88 1015.7
20260505222504 8 0 0.0 0.0 0.00 0.00 0.00 88 1015.7
20260505222005 8 0 0.0 0.0 0.00 0.00 0.00 87 1015.8
20260505221005 8 0 0.0 0.0 0.00 0.00 0.00 87 1015.8
20260505220503 8 0 0.0 0.0 0.00 0.00 0.00 87 1015.8
20260505220004 8 0 0.0 0.0 0.00 0.00 0.00 86 1015.8
20260505215503 8 0 0.0 0.0 0.00 0.00 0.00 86 1015.9
20260505215007 8 0 0.0 0.0 0.00 0.00 0.00 85 1015.9
20260505214505 8 0 0.0 0.0 0.00 0.00 0.00 86 1016.0
20260505214006 8 0 0.0 0.0 0.00 0.00 0.00 86 1015.9
20260505213506 8 0 0.0 0.0 0.00 0.00 0.00 86 1015.9
20260505213006 8 0 0.0 0.0 0.00 0.00 0.00 86 1015.8
20260505212506 8 0 0.0 0.0 0.00 0.00 0.00 86 1015.8
20260505212006 8 0 0.0 0.0 0.00 0.00 0.00 86 1015.8
20260505211006 8 0 0.0 0.0 0.00 0.00 0.00 86 1015.9
20260505210505 8 0 0.0 0.0 0.00 0.00 0.00 86 1015.9
20260505210006 8 0 0.0 0.0 0.00 0.00 0.00 86 1015.9
20260505205505 8 0 0.0 0.0 0.00 0.00 0.00 85 1015.8
20260505205006 8 0 0.0 0.0 0.00 0.00 0.00 85 1015.8
20260505204505 9 0 0.0 0.0 0.00 0.00 0.00 84 1015.7
20260505204006 9 0 0.0 0.0 0.00 0.00 0.00 84 1015.7
20260505203505 9 0 0.0 0.0 0.00 0.00 0.00 84 1015.7
20260505203007 9 0 0.0 0.0 0.00 0.00 0.00 83 1015.7
20260505202505 9 0 0.0 0.0 0.00 0.00 0.00 83 1015.8
20260505202006 9 0 0.0 0.0 0.00 0.00 0.00 83 1015.7
20260505201506 9 0 0.0 0.0 0.00 0.00 0.00 83 1015.7
20260505200506 10 0 0.0 0.0 0.00 0.00 0.00 82 1015.7
20260505200006 10 0 0.0 0.0 0.00 0.00 0.00 82 1015.8
20260505195505 10 0 0.0 0.0 0.00 0.00 0.00 81 1015.7
20260505195006 10 0 0.0 0.0 0.00 0.00 0.00 81 1015.8
20260505194505 10 0 0.0 0.0 0.00 0.00 0.00 81 1015.6
20260505194006 10 0 0.0 0.0 0.00 0.00 0.00 81 1015.7
20260505193006 10 0 0.0 0.0 0.00 0.00 0.00 80 1015.6
20260505192505 10 0 0.0 0.0 0.00 0.00 0.00 80 1015.6
20260505192007 10 0 0.0 0.0 0.00 0.00 0.00 80 1015.6
20260505190006 10 0 0.0 0.0 0.00 0.00 0.00 77 1015.6
20260505185006 11 0 0.0 0.0 0.00 0.00 0.00 76 1015.5
20260505184505 11 0 0.0 0.0 0.00 0.00 0.00 75 1015.5
20260505184006 11 0 0.0 0.0 0.00 0.00 0.00 76 1015.5
20260505183505 11 42 0.0 1.6 0.00 0.00 0.00 75 1015.5
20260505183007 11 42 0.0 3.2 0.00 0.00 0.00 75 1015.5
20260505182505 11 41 1.6 4.8 0.00 0.00 0.00 75 1015.5
20260505182007 11 39 1.6 6.4 0.00 0.00 0.00 74 1015.5
20260505181505 11 40 1.6 6.4 0.00 0.00 0.00 73 1015.5
20260505181006 11 41 1.6 6.4 0.00 0.00 0.00 74 1015.5
20260505180506 11 38 1.6 6.4 0.00 0.00 0.00 74 1015.5
20260505180006 11 37 1.6 6.4 0.00 0.00 0.00 74 1015.6
20260505175005 11 54 1.6 6.4 0.00 0.00 0.00 73 1015.5
20260505174506 11 57 1.6 4.8 0.00 0.00 0.00 73 1015.5
20260505174006 11 18 1.6 6.4 0.00 0.00 0.00 73 1015.6
20260505173506 11 25 1.6 6.4 0.00 0.00 0.00 73 1015.6
20260505173006 11 32 1.6 6.4 0.00 0.00 0.00 73 1015.6
20260505172506 11 32 1.6 6.4 0.00 0.00 0.00 73 1015.5
20260505172006 11 30 1.6 6.4 0.00 0.00 0.00 74 1015.5
20260505171506 11 20 0.0 6.4 0.00 0.00 0.00 73 1015.5
20260505170005 12 0 0.0 0.0 0.00 0.00 0.00 73 1015.7
20260505165505 12 0 0.0 0.0 0.00 0.00 0.00 71 1015.7
20260505165006 12 0 0.0 0.0 0.00 0.00 0.00 71 1015.8
20260505164505 12 0 0.0 0.0 0.00 0.00 0.00 70 1015.9
20260505164005 12 0 0.0 0.0 0.00 0.00 0.00 71 1015.8
20260505163007 12 0 0.0 0.0 0.00 0.00 0.00 69 1015.8
20260505162505 12 0 0.0 0.0 0.00 0.00 0.00 68 1015.9
20260505162006 13 0 0.0 0.0 0.00 0.00 0.00 67 1015.9
20260505161505 13 0 0.0 0.0 0.00 0.00 0.00 67 1015.9
20260505161006 13 0 0.0 0.0 0.00 0.00 0.00 68 1015.9
20260505160505 12 0 0.0 0.0 0.00 0.00 0.00 70 1015.9
20260505153006 11 0 0.0 0.0 0.00 0.00 0.00 72 1015.9
20260505152505 11 0 0.0 0.0 0.00 0.00 0.00 70 1016.1
20260505152006 11 0 0.0 0.0 0.00 0.00 0.00 71 1016.0
20260505151006 11 0 0.0 0.0 0.00 0.00 0.00 74 1016.2
20260505150504 11 0 0.0 0.0 0.00 0.00 0.00 75 1016.1
20260505140505 13 278 0.0 6.4 0.00 0.00 0.00 68 1016.1
20260505124505 12 0 0.0 0.0 0.00 0.00 0.00 76 1016.3
20260505124006 12 283 0.0 1.6 0.00 0.00 0.00 75 1016.3
20260505123505 12 282 0.0 11.3 0.00 0.00 0.00 74 1016.3
20260505122505 13 270 1.6 11.3 0.00 0.00 0.00 70 1016.3
20260505122005 13 261 3.2 8.0 0.00 0.00 0.00 69 1016.1
20260505121505 14 255 1.6 8.0 0.00 0.00 0.00 69 1016.2
20260505121006 14 283 0.0 4.8 0.00 0.00 0.00 75 1016.2
20260505120505 13 273 3.2 11.3 0.00 0.00 0.00 74 1016.3
20260505115505 13 301 0.0 4.8 0.00 0.00 0.00 71 1016.4
20260505114505 12 27 1.6 9.7 0.00 0.00 0.00 71 1016.6
20260505114006 12 36 0.0 4.8 0.00 0.00 0.00 71 1016.7
20260505113006 12 32 1.6 8.0 0.00 0.00 0.00 72 1016.6
20260505112006 12 34 1.6 8.0 0.00 0.00 0.00 72 1016.7
20260505111505 12 0 0.0 0.0 0.00 0.00 0.00 71 1016.8
20260505111006 12 0 0.0 0.0 0.00 0.00 0.00 72 1016.8
20260505110505 11 4 1.6 6.4 0.00 0.00 0.00 73 1016.8
20260505102006 11 289 0.0 3.2 0.00 0.00 0.00 77 1016.8
20260505100504 11 280 1.6 6.4 0.00 0.00 0.00 78 1016.8
20260505100005 11 272 1.6 4.8 0.00 0.00 0.00 77 1016.8
20260505095505 11 270 1.6 6.4 0.00 0.00 0.00 78 1016.7
20260505095007 11 275 1.6 6.4 0.00 0.00 0.00 81 1016.7
20260505094505 11 280 3.2 9.7 0.00 0.00 0.00 80 1016.7
20260505094006 11 283 3.2 9.7 0.00 0.00 0.00 79 1016.7
20260505093504 11 293 1.6 9.7 0.00 0.00 0.00 79 1016.7
20260505092504 11 15 0.0 3.2 0.00 0.00 0.00 79 1016.7
20260505092005 11 35 0.0 3.2 0.00 0.00 0.00 79 1016.7
20260505091504 11 4 0.0 3.2 0.00 0.00 0.00 79 1016.8
20260505091007 11 280 0.0 3.2 0.00 0.00 0.00 81 1016.8
20260505090505 11 280 0.0 1.6 0.00 0.00 0.00 81 1016.7
20260505085504 10 279 0.0 3.2 0.00 0.00 0.00 81 1016.8
20260505085005 10 279 0.0 3.2 0.00 0.00 0.00 83 1016.8
20260505084505 10 279 0.0 3.2 0.00 0.00 0.00 82 1016.9
20260505084005 10 279 0.0 3.2 0.00 0.00 0.00 84 1016.8
20260505083504 10 279 0.0 4.8 0.00 0.00 0.00 84 1016.8
20260505083005 10 279 0.0 4.8 0.00 0.00 0.00 85 1016.8
20260505082006 9 279 1.6 3.2 0.00 0.00 0.00 85 1016.8
20260505081504 9 279 1.6 3.2 0.00 0.00 0.00 86 1016.9
20260505081005 9 278 1.6 4.8 0.00 0.00 0.00 86 1016.9
20260505080505 9 278 1.6 4.8 0.00 0.00 0.00 86 1016.8
20260505080005 9 279 0.0 3.2 0.00 0.00 0.00 87 1016.9
20260505075504 9 278 1.6 4.8 0.00 0.00 0.00 87 1017.0
20260505075005 9 280 1.6 4.8 0.00 0.00 0.00 87 1016.9
20260505074504 9 281 1.6 4.8 0.00 0.00 0.00 87 1016.9
20260505074006 8 285 0.0 4.8 0.00 0.00 0.00 87 1016.9
20260505073504 8 291 1.6 4.8 0.00 0.00 0.00 88 1017.0
20260505072005 8 325 0.0 3.2 0.00 0.00 0.00 88 1017.0
20260505071006 8 356 0.0 4.8 0.00 0.00 0.00 89 1016.9
20260505070504 8 16 0.0 3.2 0.00 0.00 0.00 89 1016.9